Torna al catalogo

SL-6 R/B(2)

AttivoHEO
NORAD 21121·ROCKET BODY·🇷🇺 Russia

Lanciato Feb 15, 1991 da Plesetsk Cosmodrome

Loading…

Prossimi Passaggi (prossime 24 ore)

TLE

AggiornatoSource: Space-Track

Epoca: Sep 13, 2026, 21:02 UTC

1 21121U 91012D   26256.87668848  .00000193  00000-0  00000-0 0  9999
2 21121  64.6414 157.6268 6502309 252.2686  30.9211  2.05802491 98953

Traccia SL-6 R/B(2) in tempo reale con AllMySat

Download on the App Store